Time,TemperatureF,DewpointF,PressureIn,WindDirection,WindDirectionDegrees,WindSpeedMPH,WindSpeedGustMPH,Humidity,HourlyPrecipIn,Conditions,Clouds,dailyrainin,SoftwareType,DateUTC
2013-05-25 00:04:00,58.1,36.9,30.11,SSW,202,0.0,-999.0,45,-99.99,,,0.00,Acu-Link.com,2013-05-25 04:04:00,
2013-05-25 00:20:00,58.1,38.0,30.11,WNW,292,0.0,-999.0,47,-99.99,,,0.00,Acu-Link.com,2013-05-25 04:20:00,
2013-05-25 00:35:00,58.8,36.4,30.11,East,90,0.0,-999.0,43,-99.99,,,0.00,Acu-Link.com,2013-05-25 04:35:00,
2013-05-25 00:50:00,59.2,37.3,30.11,NNE,22,0.0,-999.0,44,-99.99,,,0.00,Acu-Link.com,2013-05-25 04:50:00,
2013-05-25 01:06:00,59.2,38.4,30.12,SSW,202,0.0,-999.0,46,-99.99,,,0.00,Acu-Link.com,2013-05-25 05:06:00,
2013-05-25 01:21:00,58.6,37.3,30.12,WSW,247,0.0,-999.0,45,-99.99,,,0.00,Acu-Link.com,2013-05-25 05:21:00,
2013-05-25 01:36:00,57.6,36.4,30.13,WSW,247,0.0,-999.0,45,-99.99,,,0.00,Acu-Link.com,2013-05-25 05:36:00,
2013-05-25 01:52:00,57.2,38.2,30.13,SSW,202,0.0,-999.0,49,-99.99,,,0.00,Acu-Link.com,2013-05-25 05:52:00,
2013-05-25 02:07:00,57.0,39.6,30.13,North,0,0.0,-999.0,52,-99.99,,,0.00,Acu-Link.com,2013-05-25 06:07:00,
2013-05-25 02:23:00,56.3,39.4,30.13,West,270,0.0,-999.0,53,-99.99,,,0.00,Acu-Link.com,2013-05-25 06:23:00,
2013-05-25 02:38:00,55.6,38.3,30.13,SW,225,0.0,-999.0,52,-99.99,,,0.00,Acu-Link.com,2013-05-25 06:38:00,
2013-05-25 02:53:00,54.9,40.4,30.13,SW,225,0.0,-999.0,58,-99.99,,,0.00,Acu-Link.com,2013-05-25 06:53:00,
2013-05-25 03:08:00,54.0,39.1,30.13,SSW,202,0.0,-999.0,57,-99.99,,,0.00,Acu-Link.com,2013-05-25 07:08:00,
2013-05-25 03:24:00,53.4,40.3,30.14,SSW,202,0.0,-999.0,61,-99.99,,,0.00,Acu-Link.com,2013-05-25 07:24:00,
2013-05-25 03:39:00,52.9,39.8,30.14,WSW,247,0.0,-999.0,61,-99.99,,,0.00,Acu-Link.com,2013-05-25 07:39:00,
2013-05-25 03:54:00,52.5,40.7,30.13,NNW,337,0.0,-999.0,64,-99.99,,,0.00,Acu-Link.com,2013-05-25 07:54:00,
2013-05-25 04:10:00,52.0,41.4,30.13,ESE,112,0.0,-999.0,67,-99.99,,,0.00,Acu-Link.com,2013-05-25 08:10:00,
2013-05-25 04:25:00,51.3,41.1,30.14,SSE,157,0.0,-999.0,68,-99.99,,,0.00,Acu-Link.com,2013-05-25 08:25:00,
2013-05-25 04:41:00,50.9,40.0,30.15,SSE,157,0.0,-999.0,66,-99.99,,,0.00,Acu-Link.com,2013-05-25 08:41:00,
2013-05-25 04:56:00,50.7,39.8,30.15,SSE,157,0.0,-999.0,66,-99.99,,,0.00,Acu-Link.com,2013-05-25 08:56:00,
2013-05-25 05:12:00,50.7,40.1,30.15,SSE,157,0.0,-999.0,67,-99.99,,,0.00,Acu-Link.com,2013-05-25 09:12:00,
2013-05-25 05:27:00,50.5,39.6,30.15,SSE,157,0.0,-999.0,66,-99.99,,,0.00,Acu-Link.com,2013-05-25 09:27:00,
2013-05-25 05:42:00,49.1,40.1,30.16,SSE,157,0.0,-999.0,71,-99.99,,,0.00,Acu-Link.com,2013-05-25 09:42:00,
2013-05-25 05:58:00,48.7,40.8,30.18,SSE,157,0.0,-999.0,74,-99.99,,,0.00,Acu-Link.com,2013-05-25 09:58:00,
2013-05-25 06:13:00,48.2,41.0,30.18,SSE,157,0.0,-999.0,76,-99.99,,,0.00,Acu-Link.com,2013-05-25 10:13:00,
2013-05-25 06:28:00,47.7,41.2,30.19,SE,135,0.0,-999.0,78,-99.99,,,0.00,Acu-Link.com,2013-05-25 10:28:00,
2013-05-25 06:43:00,47.7,41.8,30.20,SSE,157,0.0,-999.0,80,-99.99,,,0.00,Acu-Link.com,2013-05-25 10:43:00,
2013-05-25 06:58:00,47.7,42.2,30.21,SSE,157,0.0,-999.0,81,-99.99,,,0.00,Acu-Link.com,2013-05-25 10:58:00,
2013-05-25 07:14:00,47.7,42.2,30.22,SSE,157,0.0,-999.0,81,-99.99,,,0.00,Acu-Link.com,2013-05-25 11:14:00,
2013-05-25 07:29:00,48.2,42.6,30.22,SSE,157,0.0,-999.0,81,-99.99,,,0.00,Acu-Link.com,2013-05-25 11:29:00,
2013-05-25 07:44:00,49.3,44.0,30.23,SSE,157,0.0,-999.0,82,-99.99,,,0.00,Acu-Link.com,2013-05-25 11:44:00,
2013-05-25 08:00:00,50.9,46.2,30.22,SSE,157,0.0,-999.0,84,-99.99,,,0.00,Acu-Link.com,2013-05-25 12:00:00,
2013-05-25 08:16:00,56.1,47.9,30.23,SSE,157,0.0,-999.0,74,-99.99,,,0.00,Acu-Link.com,2013-05-25 12:16:00,
2013-05-25 08:31:00,60.6,48.8,30.23,NW,315,0.0,-999.0,65,-99.99,,,0.00,Acu-Link.com,2013-05-25 12:31:00,
2013-05-25 08:46:00,62.8,45.4,30.23,SSW,202,0.0,-999.0,53,-99.99,,,0.00,Acu-Link.com,2013-05-25 12:46:00,
2013-05-25 09:01:00,63.3,44.3,30.23,ESE,112,0.0,-999.0,50,-99.99,,,0.00,Acu-Link.com,2013-05-25 13:01:00,
2013-05-25 09:17:00,62.2,44.4,30.23,SE,135,0.0,-999.0,52,-99.99,,,0.00,Acu-Link.com,2013-05-25 13:17:00,
2013-05-25 09:32:00,62.4,44.0,30.24,ESE,112,0.0,-999.0,51,-99.99,,,0.00,Acu-Link.com,2013-05-25 13:32:00,
2013-05-25 09:47:00,62.8,43.9,30.24,SW,225,0.0,-999.0,50,-99.99,,,0.00,Acu-Link.com,2013-05-25 13:47:00,
2013-05-25 10:03:00,63.9,44.4,30.24,East,90,0.0,-999.0,49,-99.99,,,0.00,Acu-Link.com,2013-05-25 14:03:00,
2013-05-25 10:18:00,64.0,43.9,30.24,ESE,112,0.0,-999.0,48,-99.99,,,0.00,Acu-Link.com,2013-05-25 14:18:00,
2013-05-25 10:34:00,65.5,44.7,30.24,NW,315,1.7,-999.0,47,-99.99,,,0.00,Acu-Link.com,2013-05-25 14:34:00,
2013-05-25 10:49:00,66.6,42.2,30.24,ESE,112,0.0,-999.0,41,-99.99,,,0.00,Acu-Link.com,2013-05-25 14:49:00,
2013-05-25 11:04:00,67.6,40.4,30.24,SE,135,0.0,-999.0,37,-99.99,,,0.00,Acu-Link.com,2013-05-25 15:04:00,
2013-05-25 11:19:00,67.8,43.2,30.24,ESE,112,2.2,-999.0,41,-99.99,,,0.00,Acu-Link.com,2013-05-25 15:19:00,
2013-05-25 11:35:00,68.7,44.7,30.23,South,180,0.0,-999.0,42,-99.99,,,0.00,Acu-Link.com,2013-05-25 15:35:00,
2013-05-25 11:50:00,70.2,44.1,30.23,WNW,292,0.0,-999.0,39,-99.99,,,0.00,Acu-Link.com,2013-05-25 15:50:00,
2013-05-25 12:05:00,70.7,43.8,30.22,West,270,0.0,-999.0,38,-99.99,,,0.00,Acu-Link.com,2013-05-25 16:05:00,
2013-05-25 12:21:00,70.0,41.1,30.21,SSE,157,0.0,-999.0,35,-99.99,,,0.00,Acu-Link.com,2013-05-25 16:21:00,
2013-05-25 12:36:00,71.8,41.9,30.22,NW,315,0.0,-999.0,34,-99.99,,,0.00,Acu-Link.com,2013-05-25 16:36:00,
2013-05-25 12:51:00,72.5,44.0,30.21,SSW,202,0.0,-999.0,36,-99.99,,,0.00,Acu-Link.com,2013-05-25 16:51:00,
2013-05-25 13:06:00,73.6,44.2,30.19,SSE,157,0.0,-999.0,35,-99.99,,,0.00,Acu-Link.com,2013-05-25 17:06:00,
2013-05-25 13:21:00,73.4,46.2,30.18,SE,135,0.0,-999.0,38,-99.99,,,0.00,Acu-Link.com,2013-05-25 17:21:00,
2013-05-25 13:37:00,74.1,46.2,30.17,East,90,0.0,-999.0,37,-99.99,,,0.00,Acu-Link.com,2013-05-25 17:37:00,
2013-05-25 13:52:00,73.6,45.7,30.17,ENE,67,0.0,-999.0,37,-99.99,,,0.00,Acu-Link.com,2013-05-25 17:52:00,
2013-05-25 14:07:00,75.2,44.1,30.16,NNE,22,0.0,-999.0,33,-99.99,,,0.00,Acu-Link.com,2013-05-25 18:07:00,
2013-05-25 14:23:00,75.7,42.1,30.16,NW,315,0.0,-999.0,30,-99.99,,,0.00,Acu-Link.com,2013-05-25 18:23:00,
2013-05-25 14:38:00,77.5,45.3,30.15,WNW,292,0.0,-999.0,32,-99.99,,,0.00,Acu-Link.com,2013-05-25 18:38:00,
2013-05-25 14:53:00,77.7,47.1,30.15,ESE,112,0.0,-999.0,34,-99.99,,,0.00,Acu-Link.com,2013-05-25 18:53:00,
2013-05-25 15:09:00,78.1,46.6,30.15,NW,315,1.7,-999.0,33,-99.99,,,0.00,Acu-Link.com,2013-05-25 19:09:00,
2013-05-25 15:24:00,78.3,49.1,30.13,SW,225,0.0,-999.0,36,-99.99,,,0.00,Acu-Link.com,2013-05-25 19:24:00,
2013-05-25 15:39:00,78.6,49.4,30.12,South,180,2.2,-999.0,36,-99.99,,,0.00,Acu-Link.com,2013-05-25 19:39:00,
2013-05-25 15:55:00,78.6,49.4,30.12,NE,45,0.0,-999.0,36,-99.99,,,0.00,Acu-Link.com,2013-05-25 19:55:00,
2013-05-25 16:10:00,77.7,49.3,30.12,ESE,112,0.0,-999.0,37,-99.99,,,0.00,Acu-Link.com,2013-05-25 20:10:00,
2013-05-25 16:25:00,76.1,48.6,30.11,South,180,0.0,-999.0,38,-99.99,,,0.00,Acu-Link.com,2013-05-25 20:25:00,
2013-05-25 16:41:00,76.3,50.2,30.11,NNE,22,0.0,-999.0,40,-99.99,,,0.00,Acu-Link.com,2013-05-25 20:41:00,
2013-05-25 16:56:00,76.3,49.5,30.10,West,270,0.0,-999.0,39,-99.99,,,0.00,Acu-Link.com,2013-05-25 20:56:00,
2013-05-25 17:11:00,76.5,48.3,30.10,SSW,202,0.0,-999.0,37,-99.99,,,0.00,Acu-Link.com,2013-05-25 21:11:00,
2013-05-25 17:26:00,76.1,51.3,30.10,SW,225,0.0,-999.0,42,-99.99,,,0.00,Acu-Link.com,2013-05-25 21:26:00,
2013-05-25 17:42:00,74.8,49.5,30.10,ESE,112,0.0,-999.0,41,-99.99,,,0.00,Acu-Link.com,2013-05-25 21:42:00,
2013-05-25 17:57:00,74.1,50.2,30.09,WSW,247,0.0,-999.0,43,-99.99,,,0.00,Acu-Link.com,2013-05-25 21:57:00,
2013-05-25 18:12:00,73.6,47.8,30.09,South,180,0.0,-999.0,40,-99.99,,,0.00,Acu-Link.com,2013-05-25 22:12:00,
2013-05-25 18:28:00,73.0,48.5,30.09,SSE,157,0.0,-999.0,42,-99.99,,,0.00,Acu-Link.com,2013-05-25 22:28:00,
2013-05-25 18:43:00,72.5,48.1,30.08,SW,225,0.0,-999.0,42,-99.99,,,0.00,Acu-Link.com,2013-05-25 22:43:00,
2013-05-25 18:58:00,72.1,47.7,30.08,SSE,157,0.0,-999.0,42,-99.99,,,0.00,Acu-Link.com,2013-05-25 22:58:00,
2013-05-25 19:14:00,71.6,47.9,30.08,SSW,202,0.0,-999.0,43,-99.99,,,0.00,Acu-Link.com,2013-05-25 23:14:00,
2013-05-25 19:29:00,71.1,48.1,30.08,SSW,202,0.0,-999.0,44,-99.99,,,0.00,Acu-Link.com,2013-05-25 23:29:00,
2013-05-25 19:44:00,70.3,47.9,30.08,SSW,202,0.0,-999.0,45,-99.99,,,0.00,Acu-Link.com,2013-05-25 23:44:00,
2013-05-25 20:00:00,69.8,48.7,30.08,SSW,202,0.0,-999.0,47,-99.99,,,0.00,Acu-Link.com,2013-05-26 00:00:00,
2013-05-25 20:15:00,68.9,49.5,30.08,South,180,0.0,-999.0,50,-99.99,,,0.00,Acu-Link.com,2013-05-26 00:15:00,
2013-05-25 20:30:00,67.8,51.0,30.08,SSW,202,0.0,-999.0,55,-99.99,,,0.00,Acu-Link.com,2013-05-26 00:30:00,
2013-05-25 20:46:00,66.7,51.9,30.09,SSW,202,0.0,-999.0,59,-99.99,,,0.00,Acu-Link.com,2013-05-26 00:46:00,
2013-05-25 21:01:00,65.7,51.9,30.09,SSW,202,0.0,-999.0,61,-99.99,,,0.00,Acu-Link.com,2013-05-26 01:01:00,
2013-05-25 21:16:00,64.9,51.6,30.08,South,180,0.0,-999.0,62,-99.99,,,0.00,Acu-Link.com,2013-05-26 01:16:00,
2013-05-25 21:31:00,64.0,51.1,30.09,SW,225,0.0,-999.0,63,-99.99,,,0.00,Acu-Link.com,2013-05-26 01:31:00,
2013-05-25 21:46:00,63.0,51.5,30.08,SSE,157,0.0,-999.0,66,-99.99,,,0.00,Acu-Link.com,2013-05-26 01:46:00,
2013-05-25 22:02:00,62.6,50.7,30.08,SW,225,0.0,-999.0,65,-99.99,,,0.00,Acu-Link.com,2013-05-26 02:02:00,
2013-05-25 22:17:00,62.1,51.0,30.09,NW,315,0.0,-999.0,67,-99.99,,,0.00,Acu-Link.com,2013-05-26 02:17:00,
2013-05-25 22:32:00,61.5,52.0,30.09,WNW,292,0.0,-999.0,71,-99.99,,,0.00,Acu-Link.com,2013-05-26 02:32:00,
2013-05-25 22:48:00,61.0,51.9,30.09,South,180,0.0,-999.0,72,-99.99,,,0.00,Acu-Link.com,2013-05-26 02:48:00,
2013-05-25 23:03:00,60.3,51.6,30.09,WNW,292,0.0,-999.0,73,-99.99,,,0.00,Acu-Link.com,2013-05-26 03:03:00,
2013-05-25 23:18:00,59.7,52.1,30.09,NNW,337,0.0,-999.0,76,-99.99,,,0.00,Acu-Link.com,2013-05-26 03:18:00,
2013-05-25 23:34:00,59.2,52.7,30.07,SSE,157,0.0,-999.0,79,-99.99,,,0.00,Acu-Link.com,2013-05-26 03:34:00,
2013-05-25 23:49:00,58.6,51.4,30.06,WNW,292,0.0,-999.0,77,-99.99,,,0.00,Acu-Link.com,2013-05-26 03:49:00,